| time (UTC) | temp C | wind direction | speed KPH | gust KPH | rain 1hr cm | rain 24hr cm | rain mn cm | humidity % | barometer mb |
| 20260504050352 | 6 | 269 | 0.0 | 4.8 | 0.00 | 0.00 | 0.00 | 62 | 1015.4 |
| 20260504045849 | 6 | 241 | 3.2 | 6.4 | 0.00 | 0.00 | 0.00 | 63 | 1015.5 |
| 20260504045344 | 6 | 262 | 0.0 | 4.8 | 0.00 | 0.00 | 0.00 | 63 | 1015.4 |
| 20260504044841 | 6 | 262 | 3.2 | 4.8 | 0.00 | 0.00 | 0.00 | 63 | 1015.6 |
| 20260504044339 | 6 | 262 | 1.6 | 3.2 | 0.00 | 0.00 | 0.00 | 64 | 1015.4 |
| 20260504043836 | 6 | 266 | 0.0 | 3.2 | 0.00 | 0.00 | 0.00 | 63 | 1015.5 |
| 20260504043333 | 6 | 240 | 1.6 | 4.8 | 0.00 | 0.00 | 0.00 | 63 | 1015.4 |
| 20260504042830 | 6 | 292 | 1.6 | 4.8 | 0.00 | 0.00 | 0.00 | 63 | 1015.3 |
| 20260504042326 | 7 | 298 | 3.2 | 4.8 | 0.00 | 0.00 | 0.00 | 62 | 1015.5 |
| 20260504041823 | 6 | 298 | 1.6 | 4.8 | 0.00 | 0.00 | 0.00 | 63 | 1015.4 |
| 20260504041319 | 7 | 245 | 3.2 | 4.8 | 0.00 | 0.00 | 0.00 | 62 | 1015.2 |
| 20260504040815 | 7 | 260 | 3.2 | 4.8 | 0.00 | 0.00 | 0.00 | 62 | 1015.4 |
| 20260504040313 | 7 | 307 | 3.2 | 6.4 | 0.00 | 0.00 | 0.00 | 61 | 1015.4 |
| 20260504035809 | 7 | 257 | 3.2 | 8.0 | 0.00 | 0.00 | 0.00 | 60 | 1015.4 |
| 20260504035306 | 7 | 275 | 3.2 | 3.2 | 0.00 | 0.00 | 0.00 | 60 | 1015.3 |
| 20260504034803 | 7 | 296 | 1.6 | 4.8 | 0.00 | 0.00 | 0.00 | 60 | 1015.1 |
| 20260504034301 | 6 | 277 | 3.2 | 4.8 | 0.00 | 0.00 | 0.00 | 63 | 1015.0 |
| 20260504033758 | 6 | 233 | 0.0 | 3.2 | 0.00 | 0.00 | 0.00 | 65 | 1015.0 |
| 20260504033255 | 6 | 269 | 0.0 | 3.2 | 0.00 | 0.00 | 0.00 | 67 | 1015.1 |
| 20260504032752 | 6 | 6 | 0.0 | 3.2 | 0.00 | 0.00 | 0.00 | 67 | 1015.2 |
| 20260504032249 | 6 | 135 | 0.0 | 3.2 | 0.00 | 0.00 | 0.00 | 67 | 1014.9 |
| 20260504031746 | 6 | 172 | 1.6 | 3.2 | 0.00 | 0.00 | 0.00 | 64 | 1015.1 |
| 20260504031243 | 6 | 166 | 0.0 | 3.2 | 0.00 | 0.00 | 0.00 | 63 | 1015.2 |
| 20260504030739 | 7 | 327 | 0.0 | 3.2 | 0.00 | 0.00 | 0.00 | 61 | 1015.2 |
| 20260504030236 | 7 | 157 | 0.0 | 4.8 | 0.00 | 0.00 | 0.00 | 60 | 1015.2 |
| 20260504025733 | 7 | 315 | 0.0 | 4.8 | 0.00 | 0.00 | 0.00 | 61 | 1015.3 |
| 20260504025230 | 6 | 331 | 0.0 | 3.2 | 0.00 | 0.00 | 0.00 | 64 | 1015.1 |
| 20260504024727 | 6 | 317 | 3.2 | 3.2 | 0.00 | 0.00 | 0.00 | 64 | 1015.1 |
| 20260504024223 | 7 | 354 | 0.0 | 1.6 | 0.00 | 0.00 | 0.00 | 63 | 1015.2 |
| 20260504023720 | 7 | 30 | 0.0 | 3.2 | 0.00 | 0.00 | 0.00 | 62 | 1015.1 |
| 20260504023216 | 6 | 217 | 1.6 | 3.2 | 0.00 | 0.00 | 0.00 | 66 | 1014.7 |
| 20260504022712 | 6 | 216 | 0.0 | 3.2 | 0.00 | 0.00 | 0.00 | 66 | 1014.8 |
| 20260504022209 | 6 | 19 | 1.6 | 3.2 | 0.00 | 0.00 | 0.00 | 64 | 1014.8 |
| 20260504021706 | 7 | 124 | 0.0 | 3.2 | 0.00 | 0.00 | 0.00 | 62 | 1015.0 |
| 20260504021203 | 7 | 209 | 0.0 | 3.2 | 0.00 | 0.00 | 0.00 | 61 | 1014.8 |
| 20260504020700 | 8 | 55 | 0.0 | 1.6 | 0.00 | 0.00 | 0.00 | 57 | 1014.7 |
| 20260504020155 | 8 | 253 | 1.6 | 3.2 | 0.00 | 0.00 | 0.00 | 56 | 1014.7 |
| 20260504015652 | 8 | 249 | 0.0 | 3.2 | 0.00 | 0.00 | 0.00 | 55 | 1014.7 |
| 20260504015149 | 8 | 320 | 0.0 | 3.2 | 0.00 | 0.00 | 0.00 | 56 | 1014.5 |
| 20260504014644 | 8 | 157 | 0.0 | 3.2 | 0.00 | 0.00 | 0.00 | 53 | 1014.6 |
| 20260504014142 | 8 | 165 | 1.6 | 3.2 | 0.00 | 0.00 | 0.00 | 53 | 1014.7 |
| 20260504013640 | 7 | 264 | 0.0 | 1.6 | 0.00 | 0.00 | 0.00 | 56 | 1014.8 |
| 20260504013136 | 8 | 319 | 0.0 | 3.2 | 0.00 | 0.00 | 0.00 | 55 | 1014.6 |
| 20260504012633 | 8 | 200 | 0.0 | 3.2 | 0.00 | 0.00 | 0.00 | 56 | 1014.5 |
| 20260504012131 | 8 | 290 | 0.0 | 3.2 | 0.00 | 0.00 | 0.00 | 53 | 1014.3 |
| 20260504011628 | 9 | 160 | 0.0 | 3.2 | 0.00 | 0.00 | 0.00 | 52 | 1014.5 |
| 20260504011124 | 9 | 184 | 0.0 | 4.8 | 0.00 | 0.00 | 0.00 | 52 | 1014.2 |
| 20260504010620 | 9 | 315 | 0.0 | 1.6 | 0.00 | 0.00 | 0.00 | 51 | 1014.4 |
| 20260504010116 | 10 | 62 | 0.0 | 3.2 | 0.00 | 0.00 | 0.00 | 49 | 1014.3 |
| 20260504005613 | 10 | 248 | 1.6 | 3.2 | 0.00 | 0.00 | 0.00 | 49 | 1014.4 |
| 20260504005110 | 10 | 237 | 1.6 | 3.2 | 0.00 | 0.00 | 0.00 | 49 | 1014.2 |
| 20260504004608 | 10 | 239 | 0.0 | 3.2 | 0.00 | 0.00 | 0.00 | 47 | 1014.3 |
| 20260504004105 | 10 | 315 | 0.0 | 3.2 | 0.00 | 0.00 | 0.00 | 48 | 1014.3 |
| 20260504003601 | 10 | 40 | 0.0 | 3.2 | 0.00 | 0.00 | 0.00 | 46 | 1014.1 |
| 20260504003058 | 10 | 186 | 0.0 | 3.2 | 0.00 | 0.00 | 0.00 | 46 | 1014.2 |
| 20260504002555 | 10 | 307 | 0.0 | 3.2 | 0.00 | 0.00 | 0.00 | 45 | 1014.3 |
| 20260504002053 | 11 | 53 | 0.0 | 3.2 | 0.00 | 0.00 | 0.00 | 44 | 1014.1 |
| 20260504001550 | 11 | 309 | 0.0 | 3.2 | 0.00 | 0.00 | 0.00 | 43 | 1014.3 |
| 20260504001046 | 11 | 38 | 0.0 | 3.2 | 0.00 | 0.00 | 0.00 | 42 | 1014.0 |
| 20260504000543 | 12 | 321 | 0.0 | 3.2 | 0.00 | 0.00 | 0.00 | 42 | 1014.0 |
| 20260504000041 | 12 | 315 | 0.0 | 3.2 | 0.00 | 0.00 | 0.00 | 39 | 1014.1 |
| 20260503235539 | 13 | 202 | 0.0 | 3.2 | 0.00 | 0.00 | 0.00 | 38 | 1013.9 |
| 20260503235035 | 13 | 288 | 0.0 | 3.2 | 0.00 | 0.00 | 0.00 | 36 | 1014.0 |
| 20260503234533 | 14 | 357 | 0.0 | 3.2 | 0.00 | 0.00 | 0.00 | 35 | 1014.0 |
| 20260503234031 | 15 | 330 | 0.0 | 4.8 | 0.00 | 0.00 | 0.00 | 34 | 1013.8 |
| 20260503233527 | 15 | 251 | 4.8 | 8.0 | 0.00 | 0.00 | 0.00 | 33 | 1013.5 |
| 20260503233023 | 15 | 254 | 0.0 | 11.3 | 0.00 | 0.00 | 0.00 | 35 | 1013.9 |
| 20260503232520 | 15 | 334 | 3.2 | 4.8 | 0.00 | 0.00 | 0.00 | 33 | 1013.9 |
| 20260503232018 | 15 | 21 | 0.0 | 6.4 | 0.00 | 0.00 | 0.00 | 33 | 1013.5 |
| 20260503231516 | 15 | 260 | 3.2 | 12.9 | 0.00 | 0.00 | 0.00 | 33 | 1013.5 |
| 20260503231012 | 15 | 64 | 0.0 | 6.4 | 0.00 | 0.00 | 0.00 | 33 | 1013.6 |
| 20260503230509 | 16 | 310 | 4.8 | 9.7 | 0.00 | 0.00 | 0.00 | 31 | 1013.8 |
| 20260503230006 | 16 | 235 | 8.0 | 9.7 | 0.00 | 0.00 | 0.00 | 30 | 1013.6 |
| 20260503225503 | 16 | 281 | 8.0 | 11.3 | 0.00 | 0.00 | 0.00 | 30 | 1013.8 |
| 20260503224958 | 16 | 71 | 3.2 | 6.4 | 0.00 | 0.00 | 0.00 | 31 | 1013.5 |
| 20260503224455 | 16 | 211 | 1.6 | 12.9 | 0.00 | 0.00 | 0.00 | 31 | 1013.9 |
| 20260503223953 | 17 | 343 | 3.2 | 12.9 | 0.00 | 0.00 | 0.00 | 30 | 1013.4 |
| 20260503223451 | 17 | 281 | 6.4 | 12.9 | 0.00 | 0.00 | 0.00 | 30 | 1013.4 |
| 20260503222946 | 17 | 250 | 8.0 | 25.7 | 0.00 | 0.00 | 0.00 | 30 | 1013.6 |
| 20260503222445 | 17 | 237 | 8.0 | 11.3 | 0.00 | 0.00 | 0.00 | 30 | 1013.5 |
| 20260503221943 | 17 | 313 | 6.4 | 17.7 | 0.00 | 0.00 | 0.00 | 29 | 1013.6 |
| 20260503221441 | 17 | 240 | 3.2 | 9.7 | 0.00 | 0.00 | 0.00 | 30 | 1013.8 |
| 20260503220937 | 17 | 256 | 4.8 | 11.3 | 0.00 | 0.00 | 0.00 | 31 | 1013.5 |
| 20260503220434 | 17 | 23 | 3.2 | 19.3 | 0.00 | 0.00 | 0.00 | 31 | 1014.0 |
| 20260503215931 | 17 | 56 | 3.2 | 19.3 | 0.00 | 0.00 | 0.00 | 31 | 1013.9 |
| 20260503215428 | 17 | 308 | 16.1 | 17.7 | 0.00 | 0.00 | 0.00 | 29 | 1013.6 |
| 20260503214926 | 17 | 334 | 0.0 | 9.7 | 0.00 | 0.00 | 0.00 | 30 | 1014.0 |
| 20260503214423 | 17 | 353 | 11.3 | 12.9 | 0.00 | 0.00 | 0.00 | 30 | 1013.9 |
| 20260503213920 | 17 | 299 | 6.4 | 12.9 | 0.00 | 0.00 | 0.00 | 30 | 1013.9 |
| 20260503213418 | 17 | 294 | 3.2 | 11.3 | 0.00 | 0.00 | 0.00 | 32 | 1013.8 |
| 20260503212914 | 17 | 281 | 4.8 | 16.1 | 0.00 | 0.00 | 0.00 | 31 | 1013.8 |
| 20260503212412 | 17 | 356 | 4.8 | 14.5 | 0.00 | 0.00 | 0.00 | 31 | 1013.6 |
| 20260503211909 | 17 | 246 | 6.4 | 19.3 | 0.00 | 0.00 | 0.00 | 30 | 1013.9 |
| 20260503211406 | 17 | 230 | 12.9 | 19.3 | 0.00 | 0.00 | 0.00 | 30 | 1013.6 |
| 20260503210901 | 17 | 315 | 6.4 | 22.5 | 0.00 | 0.00 | 0.00 | 30 | 1013.8 |
| 20260503210358 | 17 | 343 | 6.4 | 16.1 | 0.00 | 0.00 | 0.00 | 30 | 1013.9 |
| 20260503205853 | 17 | 266 | 3.2 | 11.3 | 0.00 | 0.00 | 0.00 | 31 | 1013.9 |
| 20260503205350 | 17 | 252 | 6.4 | 20.9 | 0.00 | 0.00 | 0.00 | 31 | 1014.0 |
| 20260503204847 | 18 | 295 | 6.4 | 11.3 | 0.00 | 0.00 | 0.00 | 30 | 1013.8 |
| 20260503204344 | 17 | 98 | 3.2 | 14.5 | 0.00 | 0.00 | 0.00 | 30 | 1013.9 |
| 20260503203841 | 17 | 240 | 4.8 | 16.1 | 0.00 | 0.00 | 0.00 | 32 | 1013.8 |
| 20260503203338 | 17 | 324 | 6.4 | 11.3 | 0.00 | 0.00 | 0.00 | 31 | 1013.9 |
| 20260503202835 | 17 | 37 | 3.2 | 11.3 | 0.00 | 0.00 | 0.00 | 32 | 1014.0 |
| 20260503202334 | 17 | 50 | 1.6 | 9.7 | 0.00 | 0.00 | 0.00 | 32 | 1014.0 |
| 20260503201832 | 17 | 248 | 6.4 | 14.5 | 0.00 | 0.00 | 0.00 | 30 | 1014.1 |
| 20260503201328 | 17 | 16 | 9.7 | 17.7 | 0.00 | 0.00 | 0.00 | 31 | 1013.9 |
| 20260503200826 | 17 | 253 | 8.0 | 17.7 | 0.00 | 0.00 | 0.00 | 31 | 1014.0 |
| 20260503200321 | 16 | 306 | 4.8 | 14.5 | 0.00 | 0.00 | 0.00 | 33 | 1014.4 |
| 20260503195819 | 16 | 257 | 4.8 | 14.5 | 0.00 | 0.00 | 0.00 | 33 | 1014.2 |
| 20260503195315 | 17 | 262 | 11.3 | 12.9 | 0.00 | 0.00 | 0.00 | 28 | 1014.4 |
| 20260503194813 | 17 | 171 | 8.0 | 16.1 | 0.00 | 0.00 | 0.00 | 32 | 1014.5 |
| 20260503194309 | 16 | 303 | 4.8 | 17.7 | 0.00 | 0.00 | 0.00 | 33 | 1014.4 |
| 20260503193805 | 16 | 1 | 12.9 | 17.7 | 0.00 | 0.00 | 0.00 | 32 | 1014.8 |
| 20260503193301 | 16 | 352 | 4.8 | 17.7 | 0.00 | 0.00 | 0.00 | 31 | 1014.7 |
| 20260503192757 | 16 | 263 | 4.8 | 30.6 | 0.00 | 0.00 | 0.00 | 33 | 1014.6 |
| 20260503192252 | 16 | 252 | 12.9 | 17.7 | 0.00 | 0.00 | 0.00 | 31 | 1014.8 |
| 20260503191749 | 16 | 313 | 4.8 | 24.1 | 0.00 | 0.00 | 0.00 | 35 | 1014.9 |
| 20260503191246 | 17 | 184 | 4.8 | 12.9 | 0.00 | 0.00 | 0.00 | 30 | 1014.7 |
| 20260503190743 | 16 | 241 | 11.3 | 32.2 | 0.00 | 0.00 | 0.00 | 33 | 1014.9 |
| 20260503190240 | 16 | 247 | 4.8 | 12.9 | 0.00 | 0.00 | 0.00 | 33 | 1015.0 |
| 20260503185737 | 16 | 310 | 4.8 | 11.3 | 0.00 | 0.00 | 0.00 | 31 | 1015.1 |
| 20260503185232 | 16 | 309 | 6.4 | 19.3 | 0.00 | 0.00 | 0.00 | 30 | 1015.0 |
| 20260503184727 | 15 | 294 | 6.4 | 11.3 | 0.00 | 0.00 | 0.00 | 31 | 1014.8 |
| 20260503184224 | 15 | 319 | 6.4 | 16.1 | 0.00 | 0.00 | 0.00 | 31 | 1015.3 |
| 20260503183720 | 15 | 304 | 4.8 | 14.5 | 0.00 | 0.00 | 0.00 | 34 | 1015.3 |
| 20260503183217 | 15 | 338 | 6.4 | 24.1 | 0.00 | 0.00 | 0.00 | 31 | 1015.4 |
| 20260503182716 | 16 | 223 | 8.0 | 20.9 | 0.00 | 0.00 | 0.00 | 33 | 1015.4 |
| 20260503182214 | 15 | 280 | 6.4 | 20.9 | 0.00 | 0.00 | 0.00 | 37 | 1015.3 |
| 20260503181710 | 15 | 263 | 17.7 | 29.0 | 0.00 | 0.00 | 0.00 | 31 | 1015.2 |
| 20260503181207 | 15 | 259 | 4.8 | 20.9 | 0.00 | 0.00 | 0.00 | 35 | 1015.6 |
| 20260503180704 | 15 | 5 | 6.4 | 11.3 | 0.00 | 0.00 | 0.00 | 33 | 1015.6 |
| 20260503180202 | 15 | 316 | 4.8 | 19.3 | 0.00 | 0.00 | 0.00 | 38 | 1015.8 |
| 20260503175659 | 15 | 5 | 9.7 | 24.1 | 0.00 | 0.00 | 0.00 | 36 | 1015.8 |
| 20260503175156 | 15 | 273 | 6.4 | 16.1 | 0.00 | 0.00 | 0.00 | 35 | 1015.7 |
| 20260503174652 | 14 | 302 | 1.6 | 17.7 | 0.00 | 0.00 | 0.00 | 39 | 1015.6 |
| 20260503174150 | 15 | 6 | 6.4 | 12.9 | 0.00 | 0.00 | 0.00 | 35 | 1015.7 |
| 20260503173645 | 13 | 326 | 9.7 | 17.7 | 0.00 | 0.00 | 0.00 | 37 | 1015.8 |
| 20260503173141 | 14 | 233 | 9.7 | 16.1 | 0.00 | 0.00 | 0.00 | 34 | 1016.1 |
| 20260503172638 | 14 | 332 | 11.3 | 17.7 | 0.00 | 0.00 | 0.00 | 36 | 1016.0 |
| 20260503172136 | 14 | 278 | 6.4 | 24.1 | 0.00 | 0.00 | 0.00 | 39 | 1016.0 |
| 20260503171632 | 13 | 345 | 3.2 | 24.1 | 0.00 | 0.00 | 0.00 | 39 | 1016.3 |
| 20260503171129 | 13 | 273 | 12.9 | 25.7 | 0.00 | 0.00 | 0.00 | 37 | 1016.2 |
| 20260503170626 | 13 | 246 | 4.8 | 29.0 | 0.00 | 0.00 | 0.00 | 38 | 1016.3 |
| 20260503170123 | 13 | 243 | 11.3 | 16.1 | 0.00 | 0.00 | 0.00 | 36 | 1016.5 |
| 20260503150515 | 10 | 266 | 11.3 | 20.9 | 0.00 | 0.00 | 0.00 | 46 | 1017.4 |
| 20260503131408 | 8 | 272 | 3.2 | 16.1 | 0.00 | 0.00 | 0.00 | 54 | 1017.7 |
| 20260503130904 | 8 | 316 | 6.4 | 17.7 | 0.00 | 0.00 | 0.00 | 53 | 1017.6 |
| 20260503130402 | 8 | 274 | 3.2 | 12.9 | 0.00 | 0.00 | 0.00 | 55 | 1017.8 |
| 20260503110806 | 4 | 346 | 3.2 | 6.4 | 0.00 | 0.00 | 0.00 | 66 | 1016.8 |
| 20260503110303 | 3 | 300 | 1.6 | 6.4 | 0.00 | 0.00 | 0.00 | 68 | 1016.7 |
| 20260503100229 | 3 | 282 | 1.6 | 4.8 | 0.00 | 0.00 | 0.00 | 68 | 1016.0 |
| 20260503090153 | 5 | 32 | 0.0 | 9.7 | 0.00 | 0.00 | 0.00 | 66 | 1015.5 |
| 20260503081624 | 5 | 304 | 0.0 | 9.7 | 0.00 | 0.00 | 0.00 | 68 | 1015.2 |
| 20260503081121 | 5 | 325 | 4.8 | 12.9 | 0.00 | 0.00 | 0.00 | 69 | 1015.3 |
| 20260503080617 | 5 | 348 | 6.4 | 8.0 | 0.00 | 0.00 | 0.00 | 71 | 1015.4 |
| 20260503080114 | 5 | 269 | 1.6 | 9.7 | 0.00 | 0.00 | 0.00 | 69 | 1015.3 |
| 20260503072551 | 5 | 4 | 0.0 | 6.4 | 0.00 | 0.00 | 0.00 | 72 | 1014.9 |
| 20260503072048 | 5 | 294 | 4.8 | 8.0 | 0.00 | 0.00 | 0.00 | 72 | 1014.9 |